Hanford, WA
on Tuesday, February 12, 2013

Tuesday
Previous Day Next Day
Daily Summary
 ActualAverage (KMWH)Record (KMWH)
Temperature
Mean Temperature °F 34°F  
Max Temperature 53°F 43°F 60°F (2011)
Min Temperature 24°F 26°F 10°F (1997)
Degree Days
Heating Degree Days 26 30  
Month to date heating degree days 379  
Since 1 July heating degree days 4053  
Cooling Degree Days 0 0  
Month to date cooling degree days 0  
Year to date cooling degree days 0  
Moisture
Dew Point 31°F   
Average Humidity 77    
Maximum Humidity 98    
Minimum Humidity 47    
Precipitation
Precipitation 0.00 in 0.03 in 0.25 in (1998)
Month to date precipitation 0.40  
Year to date precipitation 1.54  
Wind
Wind Speed 4 mph   
Max Wind Speed 16 mph   
Max Gust Speed 24 mph   
Visibility 15 miles   
Events     

Key: T is trace of precipitation, MM is missing value
Source: NWS Daily Summary
Time(PST)TemperatureDew PointHumidity Pressure Visibility Wind DirectionWind SpeedGust SpeedPrecipitationEvents Conditions
12:50 AM 25.0°F 24.1°F 96% 30.28 in 15.0 miles NE 2.3 mph - N/A   Partly Cloudy
1:50 AM 24.3°F 23.7°F 98% 30.29 in 15.0 miles NNE 3.5 mph - N/A   Partly Cloudy
2:50 AM 26.4°F 25.9°F 98% 30.29 in 15.0 miles SE 2.3 mph - N/A   Mostly Cloudy
3:50 AM 29.1°F 28.2°F 96% 30.27 in 15.0 miles Calm Calm - N/A   Mostly Cloudy
4:50 AM 28.2°F 27.7°F 98% 30.28 in 15.0 miles NNE 3.5 mph - N/A   Mostly Cloudy
5:50 AM 29.7°F 28.6°F 96% 30.29 in 15.0 miles NNW 4.6 mph - N/A   Overcast
6:50 AM 31.1°F 29.7°F 94% 30.30 in 15.0 miles NNW 2.3 mph - N/A   Overcast
7:50 AM 29.5°F 28.4°F 96% 30.31 in 15.0 miles NW 3.5 mph - N/A   Overcast
8:50 AM 34.7°F 31.6°F 89% 30.32 in 15.0 miles NE 4.6 mph - N/A   Overcast
9:50 AM 37.0°F 31.3°F 80% 30.35 in 15.0 miles NNW 3.5 mph - N/A   Overcast
10:50 AM 43.7°F 33.4°F 67% 30.35 in 15.0 miles South 4.6 mph - N/A   Overcast
11:50 AM 42.8°F 33.8°F 70% 30.35 in 15.0 miles NNE 5.8 mph - N/A   Overcast
12:50 PM 46.6°F 34.3°F 62% 30.35 in 15.0 miles NNE 4.6 mph - N/A   Mostly Cloudy
1:50 PM 49.6°F 33.4°F 54% 30.34 in 15.0 miles South 4.6 mph - N/A   Mostly Cloudy
2:50 PM 53.1°F 33.1°F 47% 30.32 in 15.0 miles SE 4.6 mph - N/A   Overcast
3:50 PM 51.1°F 33.4°F 51% 30.27 in 15.0 miles ESE 8.1 mph - N/A   Overcast
4:50 PM 50.0°F 33.6°F 53% 30.25 in 15.0 miles SSW 4.6 mph - N/A   Overcast
5:50 PM 42.1°F 33.4°F 71% 30.25 in 15.0 miles NW 6.9 mph - N/A   Overcast
6:50 PM 42.1°F 33.6°F 72% 30.25 in 15.0 miles NW 6.9 mph - N/A   Overcast
10:50 PM 45.7°F 33.4°F 62% 30.21 in 15.0 miles WSW 4.6 mph - N/A   Mostly Cloudy
11:50 PM 49.3°F 36.0°F 60% 30.19 in 15.0 miles SW 16.1 mph 24.2 mph N/A   Mostly Cloudy
Moon Phase
Feb. 12 Feb. 17 Feb. 25 Mar. 04 Mar. 11
Sunrise:07:06 AM (PST) Moon Rise:07:53 AM (PST)2/12
Sunset:05:19 PM (PST) Moon Set:08:40 PM (PST)2/12

Copyright © 2014 The Weather Underground, Inc.